This is the latest recevied weather packets stored in our database for station/object RV1CJ-14. If no packets are shown the sender has not sent any weather packets the latest 10 day(s).
| Time | Temp. | Humidity | Pressure | Rain* | Wind** | Luminosity | Snow |
|---|---|---|---|---|---|---|---|
| 1777536603 | 8.89° C | 60% | 1017.6 hPa | 0 mm | - | 422 W/m² | - |
| 1777536003 | 9.44° C | 60% | 1017.7 hPa | 0 mm | - | 457 W/m² | - |
| 1777535403 | 10° C | 60% | 1017.7 hPa | 0 mm | - | 584 W/m² | - |
| 1777534803 | 9.44° C | 60% | 1017.6 hPa | 0 mm | - | 652 W/m² | - |
| 1777534203 | 8.89° C | 61% | 1017.6 hPa | 0 mm | - | 649 W/m² | - |
| 1777533604 | 8.33° C | 60% | 1017.5 hPa | 0 mm | - | 626 W/m² | - |
| 1777533003 | 8.33° C | 61% | 1017.5 hPa | 0 mm | - | 461 W/m² | - |
| 1777532403 | 7.78° C | 61% | 1017.5 hPa | 0 mm | - | 517 W/m² | - |
| 1777531803 | 7.78° C | 60% | 1017.5 hPa | 0 mm | - | 376 W/m² | - |
| 1777531203 | 7.78° C | 64% | 1017.6 hPa | 0 mm | - | 526 W/m² | - |
| 1777530603 | 7.22° C | 66% | 1017.6 hPa | 0 mm | - | 534 W/m² | - |
| 1777530003 | 6.11° C | 68% | 1017.7 hPa | 0 mm | - | 471 W/m² | - |
| 1777529403 | 5.56° C | 70% | 1017.7 hPa | 0 mm | - | 325 W/m² | - |
| 1777528803 | 5.56° C | 72% | 1017.7 hPa | 0 mm | - | 202 W/m² | - |
| 1777528203 | 5° C | 72% | 1017.6 hPa | 0 mm | - | 144 W/m² | - |
| 1777527603 | 5° C | 72% | 1017.7 hPa | 0 mm | - | 127 W/m² | - |
| 1777527003 | 4.44° C | 73% | 1017.9 hPa | 0 mm | - | 158 W/m² | - |
| 1777526403 | 4.44° C | 74% | 1017.8 hPa | 0 mm | - | 165 W/m² | - |
| 1777525804 | 4.44° C | 75% | 1018 hPa | 0 mm | - | 132 W/m² | - |
| 1777525203 | 4.44° C | 76% | 1018 hPa | 0 mm | - | 167 W/m² | - |
| 1777524603 | 3.89° C | 77% | 1018.1 hPa | 0 mm | - | 172 W/m² | - |
| 1777524003 | 3.33° C | 78% | 1018.1 hPa | 0 mm | - | 146 W/m² | - |
| 1777523403 | 3.33° C | 79% | 1018.1 hPa | 0 mm | - | 121 W/m² | - |
| 1777522803 | 2.78° C | 80% | 1018.1 hPa | 0 mm | - | 130 W/m² | - |
| 1777522203 | 2.22° C | 81% | 1018.1 hPa | 0 mm | - | 149 W/m² | - |
* Rain latest hour (hover to see other rain measurements)
** Current wind speed in m/s (hover to see current wind gust speed)